CAPE
0 0 0 0 0 0 0 0 0 0 0 0 3 19 33 22 66 14 181 231 154 168 259 626 685 719 644 586 506 491 467 169 101 74 107 277 221 258 222 292 359 327 269 78 53 26 1 7 5
0 0 0 0 0 0 0 0 0 0 0 9 32 66 156 110 107 331 330 416 254 219 268 670 704 714 766 676 499 565 493 360 101 3 22 161 248 285 264 332 429 491 197 54 32 3 2 7 10
0 0 0 0 0 0 0 0 0 0 0 2 51 175 223 192 508 504 496 439 319 286 492 714 676 726 814 673 659 529 419 483 146 3 3 48 155 319 311 344 430 378 209 59 17 5 1 9 4
0 0 0 0 0 0 0 0 0 0 6 30 78 188 326 264 421 572 617 541 422 516 576 777 749 842 853 742 609 418 303 256 66 2 2 5 42 341 435 438 379 275 164 38 2 0 0 0 1
0 0 0 0 0 0 0 0 0 0 0 6 71 217 380 561 628 680 704 547 471 605 675 790 743 840 863 836 718 595 443 255 71 16 4 7 22 324 448 362 445 421 315 36 10 1 0 0 0
0 0 0 0 0 0 0 0 0 0 5 16 49 174 341 647 821 769 626 530 495 621 711 710 689 689 744 693 605 466 441 346 280 268 135 8 51 283 451 385 487 406 226 36 14 0 0 0 0
0 0 0 0 0 0 0 0 0 0 0 19 120 105 203 494 536 640 533 512 513 710 728 725 653 580 533 429 311 348 376 325 427 429 356 214 259 421 459 292 292 310 105 31 5 0 0 0 0
0 0 0 0 0 0 0 0 0 0 0 0 116 60 73 107 183 259 413 552 620 739 690 676 600 441 365 197 208 134 108 124 129 41 44 24 116 53 106 45 90 220 59 34 4 1 3 0 0
0 0 0 0 0 0 0 0 0 0 0 0 1 133 67 125 202 213 160 175 422 505 588 443 507 396 215 55 4 0 23 9 0 3 3 20 0 0 16 32 42 95 85 63 12 8 12 2 0
0 0 0 0 0 0 0 0 0 0 0 0 24 57 57 85 126 225 80 28 2 282 378 366 338 206 34 0 0 2 3 0 0 0 3 16 10 6 0 45 52 38 44 62 28 11 0 7 2
0 0 0 0 0 0 0 0 0 0 0 0 2 42 53 31 42 154 120 21 0 208 224 214 229 57 76 0 2 3 0 0 0 0 19 29 31 10 0 34 48 31 26 15 19 18 15 13 1
0 0 0 0 0 0 0 0 0 0 0 0 0 4 22 5 28 128 206 80 38 2 161 133 103 56 11 0 7 18 2 0 0 1 16 28 34 26 0 16 40 21 2 5 0 3 2 14 3
0 0 0 0 0 0 0 0 0 0 0 0 0 0 22 42 90 124 233 85 53 53 72 26 42 105 55 0 11 13 19 19 0 18 32 37 42 28 6 0 23 23 0 2 3 2 0 0 0
0 0 0 0 0 0 0 0 0 0 0 0 0 0 0 20 105 168 129 60 1 0 0 23 11 47 31 34 48 107 28 49 25 68 33 34 41 18 2 0 0 12 15 3 0 1 6 14 10
0 0 0 0 0 0 0 0 0 0 0 0 0 0 0 2 70 127 97 114 71 2 1 0 0 32 39 35 42 57 64 109 94 19 17 42 38 33 24 9 5 0 12 10 12 14 17 25 22
0 0 0 0 0 0 0 0 0 0 0 0 0 0 0 0 64 74 79 82 31 8 0 0 10 3 3 5 37 48 58 71 96 35 35 17 11 48 35 9 0 0 0 2 6 16 7 15 11
0 0 0 0 0 0 0 0 0 0 0 0 0 0 0 0 0 6 43 21 19 5 2 0 0 1 0 12 28 28 18 60 101 75 9 2 1 15 24 29 1 0 1 1 6 11 8 9 2
0 0 0 0 0 0 0 0 0 0 0 0 0 0 0 0 0 0 0 0 2 1 2 0 0 0 10 25 2 4 18 28 56 83 69 28 3 0 18 17 3 0 0 0 0 0 0 0 0
0 0 0 0 0 0 0 0 0 0 0 0 0 0 0 0 0 0 0 0 0 0 0 0 0 2 0 0 0 0 15 10 54 69 73 82 24 10 2 0 0 0 0 0 0 0 0 0 0
0 0 0 0 0 0 0 0 0 0 0 0 0 0 0 0 0 0 0 0 0 0 0 0 0 0 0 1 0 2 0 1 18 11 57 46 22 25 16 4 0 0 0 0 0 0 0 0 0
0 0 0 0 0 0 0 0 0 0 0 0 0 0 0 0 0 0 0 0 0 0 0 0 0 0 0 0 4 12 12 1 1 1 26 26 23 42 28 24 4 1 5 3 0 0 0 4 0
0 0 0 0 0 0 0 0 0 0 0 0 0 0 0 0 0 0 0 0 0 0 0 0 0 0 0 0 0 13 7 0 6 59 16 61 54 88 68 39 12 8 0 1 2 1 3 1 0
0 0 0 0 0 0 0 0 0 0 0 0 0 0 0 0 0 0 0 0 0 0 0 0 0 0 0 0 0 0 6 42 11 1 21 12 21 35 54 46 36 19 29 7 0 0 1 5 0
0 0 0 0 0 0 0 0 0 0 0 0 0 0 0 0 0 0 0 0 0 0 0 0 0 0 0 0 0 0 0 0 14 33 21 7 47 48 50 44 48 47 38 36 28 11 9 10 5
0 0 0 0 0 0 0 0 0 0 0 0 0 0 0 0 0 0 0 0 0 0 0 0 0 0 0 0 0 0 0 0 0 5 11 20 53 18 48 43 31 58 46 24 31 24 14 32 16
0 0 0 0 0 0 0 0 0 0 0 0 0 0 0 0 0 0 0 0 0 0 0 0 0 0 0 0 0 0 0 0 0 0 1 2 25 30 48 40 37 36 16 18 13 23 1 12 35
0 0 0 0 0 0 0 0 0 0 0 0 0 0 0 0 0 0 0 0 0 0 0 0 0 0 0 0 0 0 0 0 0 0 0 0 4 25 13 14 17 49 38 26 41 9 29 7 27
0 0 0 0 0 0 0 0 0 0 0 0 0 0 0 0 0 0 0 0 0 0 0 0 0 0 0 0 0 0 0 0 0 0 0 0 0 10 23 40 11 24 65 32 47 44 18 36 32
0 0 0 0 0 0 0 0 0 0 0 0 0 0 0 0 0 0 0 0 0 0 0 0 0 0 0 0 0 0 0 0 0 0 0 0 0 0 0 8 23 54 21 48 33 41 31 46 40
0 0 0 0 0 0 0 0 0 0 0 0 0 0 0 0 0 0 0 0 0 0 0 0 0 0 0 0 0 0 0 0 0 0 0 0 0 0 0 1 4 0 45 30 49 51 45 47 33
CIN
0 0 0 0 0 0 0 0 0 0 0 0 -20 -7 -211 -162 -134 -37 -231 -209 -202 -133 -37 -1 0 0 0 0 0 0 0 -2 -1 -16 0 0 0 0 -4 -1 -2 -4 -7 -105 -11 -28 -1 0 0
0 0 0 0 0 0 0 0 0 0 0 -32 -86 -79 -125 -207 -215 -190 -172 -117 -129 -172 -52 -1 -1 0 0 0 0 0 0 0 -9 -32 -7 0 0 0 -4 -3 -2 0 -12 -96 -17 -6 -4 0 0
0 0 0 0 0 0 0 0 0 0 0 -69 -71 -85 -127 -175 -159 -153 -115 -105 -96 -111 -25 -1 -1 0 0 0 0 0 0 0 -4 0 0 -2 -2 -1 -5 -5 -2 0 -15 -2 -2 -2 0 0 0
0 0 0 0 0 0 0 0 0 0 -12 -117 -102 -107 -133 -129 -120 -134 -102 -61 -77 -34 -3 -1 -2 0 0 0 0 0 -1 -4 -29 0 0 0 0 0 0 -1 0 0 -17 -1 -5 0 0 0 0
0 0 0 0 0 0 0 0 0 0 0 -85 -82 -89 -91 -71 -72 -93 -81 -85 -81 -25 -1 -1 -1 0 0 0 0 0 0 -2 -31 -8 0 0 -8 0 0 -1 0 0 0 -7 -17 -1 0 0 0
0 0 0 0 0 0 0 0 0 0 -74 -125 -135 -134 -69 -10 -8 -16 -72 -79 -62 -24 -1 -1 0 -1 0 0 0 -1 0 0 0 -2 -31 0 -28 0 0 -1 0 0 -6 -24 -58 0 0 0 0
0 0 0 0 0 0 0 0 0 0 0 -215 -90 -58 -25 -14 -1 -1 -54 -37 -48 -8 -1 -1 0 -1 -3 -3 -6 -9 -1 -1 -1 -1 0 -14 -4 0 -1 -3 -2 0 -80 -31 -55 0 0 0 0
0 0 0 0 0 0 0 0 0 0 0 0 -105 -45 -35 -87 -63 0 -22 -25 -13 0 -1 -3 -1 -4 -8 -9 -6 -12 -31 -15 -17 -57 -48 -16 -36 -73 -17 -20 -24 -4 -157 -16 -12 0 -19 -2 0
0 0 0 0 0 0 0 0 0 0 0 0 -9 -58 -74 -69 -35 -7 -2 -2 -19 -10 -3 -7 -3 -2 -13 -34 -31 0 -81 -48 0 -59 -118 -53 0 0 -6 -5 -8 -81 -122 -89 -14 -3 -17 -35 -55
0 0 0 0 0 0 0 0 0 0 0 0 -66 -74 -58 -50 -46 -1 -17 -1 0 0 -6 -2 0 -6 -36 0 0 -33 -20 0 0 0 -14 -172 -31 -24 0 -8 -6 -12 -6 0 -3 -17 0 -4 -1
0 0 0 0 0 0 0 0 0 0 0 0 -16 -68 -35 -28 -23 -27 -11 -12 -1 0 0 0 0 -9 -7 0 -57 -85 0 0 0 0 -18 -164 -154 -32 0 -9 -2 -4 -4 0 0 0 0 -1 0
0 0 0 0 0 0 0 0 0 0 0 0 0 -28 -67 -28 -48 -17 -1 0 0 0 0 -2 0 0 -7 0 -90 -63 -74 0 0 -5 -84 -104 -135 -19 -7 -12 -2 -1 -1 -18 0 0 0 0 -2
0 0 0 0 0 0 0 0 0 0 0 0 0 0 -46 -18 -16 -13 0 0 0 -1 -6 0 -5 0 0 0 -51 -56 -46 -40 -4 -17 -45 -87 -132 -161 -68 0 -12 -6 0 -15 0 0 0 0 -5
0 0 0 0 0 0 0 0 0 0 0 0 0 0 0 -7 -1 0 0 -3 0 0 0 0 0 0 0 0 -41 -23 -53 -29 -35 -7 -18 -62 -74 -87 -28 0 0 -17 -13 -15 0 -1 -10 -16 -20
0 0 0 0 0 0 0 0 0 0 0 0 0 0 0 -1 -2 0 -1 0 0 0 0 0 0 0 0 0 -7 -8 -9 -19 -7 -30 -19 -28 -14 -130 -38 -21 -26 0 -23 -22 -17 -8 -3 -6 -12
0 0 0 0 0 0 0 0 0 0 0 0 0 0 0 0 -4 0 0 0 0 -17 0 0 0 0 0 0 -7 -2 -2 -2 -9 -8 -14 -8 -15 -66 -95 -9 -4 0 -5 -19 -10 -8 -9 -10 -10
0 0 0 0 0 0 0 0 0 0 0 0 0 0 0 0 0 -23 -1 -8 -7 -6 -7 0 0 0 0 0 0 0 -1 -1 -4 -3 -21 -12 -5 -12 -48 -77 -2 0 -8 -85 -9 -5 -7 -9 -11
0 0 0 0 0 0 0 0 0 0 0 0 0 0 0 0 0 0 0 0 -8 -7 0 0 0 -1 0 -6 0 0 0 -1 -1 -7 -10 -10 -12 0 -13 -22 -1 0 0 0 0 0 0 0 0
0 0 0 0 0 0 0 0 0 0 0 0 0 0 0 0 0 0 0 0 0 0 0 0 0 -23 0 0 0 0 0 0 0 0 -6 -7 -3 -2 -17 0 0 0 0 0 0 0 0 0 0
0 0 0 0 0 0 0 0 0 0 0 0 0 0 0 0 0 0 0 0 0 0 0 0 0 0 0 0 0 0 0 0 0 0 0 0 -4 -2 -2 0 0 0 0 0 0 0 0 0 0
0 0 0 0 0 0 0 0 0 0 0 0 0 0 0 0 0 0 0 0 0 0 0 0 0 -1 0 0 0 -3 -4 0 0 0 -8 0 0 -12 0 0 -7 0 -50 -1 0 0 -1 -3 0
0 0 0 0 0 0 0 0 0 0 0 0 0 0 0 0 0 0 0 0 0 0 0 0 0 0 0 0 0 -3 -1 0 -2 0 -2 0 0 0 0 0 -5 -5 0 0 -8 -3 -1 0 0
0 0 0 0 0 0 0 0 0 0 0 0 0 0 0 0 0 0 0 0 0 0 0 0 0 0 0 0 0 0 0 0 -1 -4 -4 -7 0 -2 -1 0 -6 -3 0 -2 -1 0 0 -4 -1
0 0 0 0 0 0 0 0 0 0 0 0 0 0 0 0 0 0 0 0 0 0 0 0 0 0 0 0 0 0 0 0 0 0 0 0 0 0 0 -4 -5 0 0 0 0 -2 -1 -13 -2
0 0 0 0 0 0 0 0 0 0 0 0 0 0 0 0 0 0 0 0 0 0 0 0 0 0 0 0 0 0 0 0 0 0 0 -1 0 -1 0 0 -1 0 -1 -4 -7 0 -2 -13 -2
0 0 0 0 0 0 0 0 0 0 0 0 0 0 0 0 0 0 0 0 0 0 0 0 0 0 0 0 0 0 0 0 0 0 0 -1 0 0 0 0 -1 0 -3 -2 -2 -46 -2 -27 0
0 0 0 0 0 0 0 0 0 0 0 0 0 0 0 0 0 0 0 0 0 0 0 0 0 0 0 0 0 0 0 0 0 0 0 0 -3 0 0 -3 -9 -1 0 -3 -1 0 -29 -19 -1
0 0 0 0 0 0 0 0 0 0 0 0 0 0 0 0 0 0 0 0 0 0 0 0 0 0 0 0 0 0 0 0 0 0 0 0 0 -1 -2 0 -11 -17 -8 -2 -18 0 -1 0 -9
0 0 0 0 0 0 0 0 0 0 0 0 0 0 0 0 0 0 0 0 0 0 0 0 0 0 0 0 0 0 0 0 0 0 0 0 0 0 0 -17 -23 0 -2 -1 -2 0 -3 -3 0
0 0 0 0 0 0 0 0 0 0 0 0 0 0 0 0 0 0 0 0 0 0 0 0 0 0 0 0 0 0 0 0 0 0 0 0 0 0 0 0 0 0 -1 -8 -3 -4 -5 -8 -1
Wind_Speed
nan nan nan nan nan nan nan nan nan nan nan nan nan nan nan nan nan nan 21 24 31 26 20 17 22 25 25 25 26 25 25 26 23 nan 26 24 24 21 16 14 16 22 21 nan nan nan nan nan nan
nan nan nan nan nan nan nan nan nan nan nan nan nan nan 31 30 27 26 25 24 31 28 23 20 22 25 27 27 26 26 25 27 26 nan nan 27 26 24 18 13 18 22 21 nan nan nan nan nan nan
nan nan nan nan nan nan nan nan nan nan nan nan nan 37 35 30 32 27 27 28 30 28 26 24 26 24 27 28 27 26 28 28 28 nan nan nan 27 27 22 18 23 22 24 nan nan nan nan nan nan
nan nan nan nan nan nan nan nan nan nan nan nan nan 38 35 30 30 32 36 34 33 30 28 28 30 27 27 28 29 27 29 31 nan nan nan nan nan 28 24 23 27 28 25 nan nan nan nan nan nan
nan nan nan nan nan nan nan nan nan nan nan nan nan 38 35 37 36 40 39 35 36 32 31 29 29 29 30 30 28 28 28 29 nan nan nan nan nan 29 26 25 27 29 23 nan nan nan nan nan nan
nan nan nan nan nan nan nan nan nan nan nan nan nan 41 38 32 40 36 41 36 36 33 32 31 30 28 29 29 31 29 28 29 31 30 30 nan nan 30 27 27 28 28 27 nan nan nan nan nan nan
nan nan nan nan nan nan nan nan nan nan nan nan 30 38 35 46 39 28 37 41 36 36 34 33 30 30 29 29 29 28 30 30 30 29 30 31 32 30 29 27 30 28 27 nan nan nan nan nan nan
nan nan nan nan nan nan nan nan nan nan nan nan 39 nan nan 42 41 24 46 41 44 40 38 36 34 29 28 27 30 29 30 33 32 nan nan nan 33 nan 32 nan nan 28 nan nan nan nan nan nan nan
nan nan nan nan nan nan nan nan nan nan nan nan nan 33 nan 42 52 57 35 34 37 43 39 35 36 33 30 nan nan nan nan nan nan nan nan nan nan nan nan nan nan nan nan nan nan nan nan nan nan
nan nan nan nan nan nan nan nan nan nan nan nan nan nan nan nan 61 63 nan nan nan 42 39 36 35 32 nan nan nan nan nan nan nan nan nan nan nan nan nan nan nan nan nan nan nan nan nan nan nan
nan nan nan nan nan nan nan nan nan nan nan nan nan nan nan nan nan 56 63 nan nan 39 50 34 33 nan nan nan nan nan nan nan nan nan nan nan nan nan nan nan nan nan nan nan nan nan nan nan nan
nan nan nan nan nan nan nan nan nan nan nan nan nan nan nan nan nan 58 57 nan nan nan 52 46 39 nan nan nan nan nan nan nan nan nan nan nan nan nan nan nan nan nan nan nan nan nan nan nan nan
nan nan nan nan nan nan nan nan nan nan nan nan nan nan nan nan nan 54 50 nan nan nan nan nan nan 43 nan nan nan nan nan nan nan nan nan nan nan nan nan nan nan nan nan nan nan nan nan nan nan
nan nan nan nan nan nan nan nan nan nan nan nan nan nan nan nan 47 49 52 nan nan nan nan nan nan nan nan nan nan 36 nan nan nan nan nan nan nan nan nan nan nan nan nan nan nan nan nan nan nan
nan nan nan nan nan nan nan nan nan nan nan nan nan nan nan nan nan 45 nan 45 nan nan nan nan nan nan nan nan nan nan nan 36 nan nan nan nan nan nan nan nan nan nan nan nan nan nan nan nan nan
nan nan nan nan nan nan nan nan nan nan nan nan nan nan nan nan nan nan nan nan nan nan nan nan nan nan nan nan nan nan nan nan nan nan nan nan nan nan nan nan nan nan nan nan nan nan nan nan nan
nan nan nan nan nan nan nan nan nan nan nan nan nan nan nan nan nan nan nan nan nan nan nan nan nan nan nan nan nan nan nan nan 33 nan nan nan nan nan nan nan nan nan nan nan nan nan nan nan nan
nan nan nan nan nan nan nan nan nan nan nan nan nan nan nan nan nan nan nan nan nan nan nan nan nan nan nan nan nan nan nan nan nan nan nan nan nan nan nan nan nan nan nan nan nan nan nan nan nan
nan nan nan nan nan nan nan nan nan nan nan nan nan nan nan nan nan nan nan nan nan nan nan nan nan nan nan nan nan nan nan nan nan nan nan nan nan nan nan nan nan nan nan nan nan nan nan nan nan
nan nan nan nan nan nan nan nan nan nan nan nan nan nan nan nan nan nan nan nan nan nan nan nan nan nan nan nan nan nan nan nan nan nan nan nan nan nan nan nan nan nan nan nan nan nan nan nan nan
nan nan nan nan nan nan nan nan nan nan nan nan nan nan nan nan nan nan nan nan nan nan nan nan nan nan nan nan nan nan nan nan nan nan nan nan nan nan nan nan nan nan nan nan nan nan nan nan nan
nan nan nan nan nan nan nan nan nan nan nan nan nan nan nan nan nan nan nan nan nan nan nan nan nan nan nan nan nan nan nan nan nan nan nan nan nan nan nan nan nan nan nan nan nan nan nan nan nan
nan nan nan nan nan nan nan nan nan nan nan nan nan nan nan nan nan nan nan nan nan nan nan nan nan nan nan nan nan nan nan nan nan nan nan nan nan nan nan nan nan nan nan nan nan nan nan nan nan
nan nan nan nan nan nan nan nan nan nan nan nan nan nan nan nan nan nan nan nan nan nan nan nan nan nan nan nan nan nan nan nan nan nan nan nan nan nan nan nan nan nan nan nan nan nan nan nan nan
nan nan nan nan nan nan nan nan nan nan nan nan nan nan nan nan nan nan nan nan nan nan nan nan nan nan nan nan nan nan nan nan nan nan nan nan nan nan nan nan nan nan nan nan nan nan nan nan nan
nan nan nan nan nan nan nan nan nan nan nan nan nan nan nan nan nan nan nan nan nan nan nan nan nan nan nan nan nan nan nan nan nan nan nan nan nan nan nan nan nan nan nan nan nan nan nan nan nan
nan nan nan nan nan nan nan nan nan nan nan nan nan nan nan nan nan nan nan nan nan nan nan nan nan nan nan nan nan nan nan nan nan nan nan nan nan nan nan nan nan nan nan nan nan nan nan nan nan
nan nan nan nan nan nan nan nan nan nan nan nan nan nan nan nan nan nan nan nan nan nan nan nan nan nan nan nan nan nan nan nan nan nan nan nan nan nan nan nan nan nan nan nan nan nan nan nan nan
nan nan nan nan nan nan nan nan nan nan nan nan nan nan nan nan nan nan nan nan nan nan nan nan nan nan nan nan nan nan nan nan nan nan nan nan nan nan nan nan nan nan nan nan nan nan nan nan nan
nan nan nan nan nan nan nan nan nan nan nan nan nan nan nan nan nan nan nan nan nan nan nan nan nan nan nan nan nan nan nan nan nan nan nan nan nan nan nan nan nan nan nan nan nan nan nan nan nan
Wind_Direction
nan nan nan nan nan nan nan nan nan nan nan nan nan nan nan nan nan nan 260 265 276 279 275 271 282 275 268 260 256 256 257 251 243 nan 240 232 230 223 238 261 273 280 283 nan nan nan nan nan nan
nan nan nan nan nan nan nan nan nan nan nan nan nan nan 250 258 254 263 258 265 278 274 273 264 272 275 272 262 256 254 253 254 254 nan nan 234 226 221 227 274 278 281 281 nan nan nan nan nan nan
nan nan nan nan nan nan nan nan nan nan nan nan nan 264 267 257 267 267 264 269 266 266 268 267 273 272 271 269 261 258 257 253 249 nan nan nan 231 219 228 268 280 277 285 nan nan nan nan nan nan
nan nan nan nan nan nan nan nan nan nan nan nan nan 259 262 259 266 275 274 270 262 253 256 271 278 278 272 269 267 265 259 256 nan nan nan nan nan 229 237 262 272 270 278 nan nan nan nan nan nan
nan nan nan nan nan nan nan nan nan nan nan nan nan 264 253 251 249 274 274 272 266 254 252 261 276 276 273 274 270 266 263 260 nan nan nan nan nan 238 238 263 273 283 291 nan nan nan nan nan nan
nan nan nan nan nan nan nan nan nan nan nan nan nan 263 251 238 251 255 265 264 264 258 254 259 265 268 268 271 276 270 261 257 254 252 254 nan nan 246 252 260 263 271 286 nan nan nan nan nan nan
nan nan nan nan nan nan nan nan nan nan nan nan 254 257 250 238 213 239 254 254 256 260 254 248 255 263 262 262 266 267 267 257 254 248 249 252 250 242 251 260 267 272 281 nan nan nan nan nan nan
nan nan nan nan nan nan nan nan nan nan nan nan 248 nan nan 219 203 234 245 250 251 247 246 245 243 247 253 251 255 260 261 258 247 nan nan nan 249 nan 242 nan nan 270 nan nan nan nan nan nan nan
nan nan nan nan nan nan nan nan nan nan nan nan nan 249 nan 219 217 223 211 229 241 242 239 240 239 238 240 nan nan nan nan nan nan nan nan nan nan nan nan nan nan nan nan nan nan nan nan nan nan
nan nan nan nan nan nan nan nan nan nan nan nan nan nan nan nan 222 220 nan nan nan 208 228 230 237 234 nan nan nan nan nan nan nan nan nan nan nan nan nan nan nan nan nan nan nan nan nan nan nan
nan nan nan nan nan nan nan nan nan nan nan nan nan nan nan nan nan 224 217 nan nan 200 214 221 233 nan nan nan nan nan nan nan nan nan nan nan nan nan nan nan nan nan nan nan nan nan nan nan nan
nan nan nan nan nan nan nan nan nan nan nan nan nan nan nan nan nan 224 219 nan nan nan 209 206 216 nan nan nan nan nan nan nan nan nan nan nan nan nan nan nan nan nan nan nan nan nan nan nan nan
nan nan nan nan nan nan nan nan nan nan nan nan nan nan nan nan nan 225 223 nan nan nan nan nan nan 220 nan nan nan nan nan nan nan nan nan nan nan nan nan nan nan nan nan nan nan nan nan nan nan
nan nan nan nan nan nan nan nan nan nan nan nan nan nan nan nan 235 228 222 nan nan nan nan nan nan nan nan nan nan 234 nan nan nan nan nan nan nan nan nan nan nan nan nan nan nan nan nan nan nan
nan nan nan nan nan nan nan nan nan nan nan nan nan nan nan nan nan 226 nan 226 nan nan nan nan nan nan nan nan nan nan nan 233 nan nan nan nan nan nan nan nan nan nan nan nan nan nan nan nan nan
nan nan nan nan nan nan nan nan nan nan nan nan nan nan nan nan nan nan nan nan nan nan nan nan nan nan nan nan nan nan nan nan nan nan nan nan nan nan nan nan nan nan nan nan nan nan nan nan nan
nan nan nan nan nan nan nan nan nan nan nan nan nan nan nan nan nan nan nan nan nan nan nan nan nan nan nan nan nan nan nan nan 229 nan nan nan nan nan nan nan nan nan nan nan nan nan nan nan nan
nan nan nan nan nan nan nan nan nan nan nan nan nan nan nan nan nan nan nan nan nan nan nan nan nan nan nan nan nan nan nan nan nan nan nan nan nan nan nan nan nan nan nan nan nan nan nan nan nan
nan nan nan nan nan nan nan nan nan nan nan nan nan nan nan nan nan nan nan nan nan nan nan nan nan nan nan nan nan nan nan nan nan nan nan nan nan nan nan nan nan nan nan nan nan nan nan nan nan
nan nan nan nan nan nan nan nan nan nan nan nan nan nan nan nan nan nan nan nan nan nan nan nan nan nan nan nan nan nan nan nan nan nan nan nan nan nan nan nan nan nan nan nan nan nan nan nan nan
nan nan nan nan nan nan nan nan nan nan nan nan nan nan nan nan nan nan nan nan nan nan nan nan nan nan nan nan nan nan nan nan nan nan nan nan nan nan nan nan nan nan nan nan nan nan nan nan nan
nan nan nan nan nan nan nan nan nan nan nan nan nan nan nan nan nan nan nan nan nan nan nan nan nan nan nan nan nan nan nan nan nan nan nan nan nan nan nan nan nan nan nan nan nan nan nan nan nan
nan nan nan nan nan nan nan nan nan nan nan nan nan nan nan nan nan nan nan nan nan nan nan nan nan nan nan nan nan nan nan nan nan nan nan nan nan nan nan nan nan nan nan nan nan nan nan nan nan
nan nan nan nan nan nan nan nan nan nan nan nan nan nan nan nan nan nan nan nan nan nan nan nan nan nan nan nan nan nan nan nan nan nan nan nan nan nan nan nan nan nan nan nan nan nan nan nan nan
nan nan nan nan nan nan nan nan nan nan nan nan nan nan nan nan nan nan nan nan nan nan nan nan nan nan nan nan nan nan nan nan nan nan nan nan nan nan nan nan nan nan nan nan nan nan nan nan nan
nan nan nan nan nan nan nan nan nan nan nan nan nan nan nan nan nan nan nan nan nan nan nan nan nan nan nan nan nan nan nan nan nan nan nan nan nan nan nan nan nan nan nan nan nan nan nan nan nan
nan nan nan nan nan nan nan nan nan nan nan nan nan nan nan nan nan nan nan nan nan nan nan nan nan nan nan nan nan nan nan nan nan nan nan nan nan nan nan nan nan nan nan nan nan nan nan nan nan
nan nan nan nan nan nan nan nan nan nan nan nan nan nan nan nan nan nan nan nan nan nan nan nan nan nan nan nan nan nan nan nan nan nan nan nan nan nan nan nan nan nan nan nan nan nan nan nan nan
nan nan nan nan nan nan nan nan nan nan nan nan nan nan nan nan nan nan nan nan nan nan nan nan nan nan nan nan nan nan nan nan nan nan nan nan nan nan nan nan nan nan nan nan nan nan nan nan nan
nan nan nan nan nan nan nan nan nan nan nan nan nan nan nan nan nan nan nan nan nan nan nan nan nan nan nan nan nan nan nan nan nan nan nan nan nan nan nan nan nan nan nan nan nan nan nan nan nan